001  
ASUS44 KMEG 221810  
RWRMEG  
MEMPHIS CWA HOURLY WEATHER ROUNDUP  
NATIONAL WEATHER SERVICE MEMPHIS TN  
1200 PM CST WED NOV 22 2017  
   
..WEST TENNESSEE
 
 
 
CITY SKY/WX TMP DP RH WIND PRES REMARKS
 
MEMPHIS INTL MOSUNNY 45 25 45 N7 30.31F  
6HR MIN TEMP: 34; 6HR MAX TEMP: 45;  
 
NWS MEMPHIS N/A 43 N/A N/A MISG N/A  
JACKSON SUNNY 44 25 47 N9 30.30F  
6HR MIN TEMP: 32; 6HR MAX TEMP: 44;  
 
COVINGTON SUNNY 43 25 49 NE9 30.32F  
SOMERVILLE SUNNY 43 25 49 VRB7G15 30.29F  
BOLIVAR SUNNY 45 25 45 VRB7 30.29F  
LEXINGTON SUNNY 43 23 45 N9G16 30.28F  
SELMER SUNNY 45 23 42 N12 30.27F  
SAVANNAH SUNNY 45 25 45 N9G17 30.27F  
DYERSBURG SUNNY 43 24 47 NE10 30.32F  
6HR MIN TEMP: 30; 6HR MAX TEMP: 43;  
 
UNION CITY SUNNY 43 23 45 NE9 30.31F  
PARIS SUNNY 41 25 52 N8 30.29F  
HUNTINGDON SUNNY 43 25 49 NE10 30.29F  
 
   
..EASTERN ARKANSAS
 
 
 
CITY SKY/WX TMP DP RH WIND PRES REMARKS
 
JONESBORO SUNNY 42 24 49 E14 30.34F  
6HR MIN TEMP: 32; 6HR MAX TEMP: 42; 6HR PCP: TRACE;  
 
WEST MEMPHIS SUNNY 43 26 51 NE10 30.32F  
6HR MIN TEMP: 32; 6HR MAX TEMP: 43;  
 
BATESVILLE SUNNY 44 20 38 NE7 30.36F  
6HR MIN TEMP: 30; 6HR MAX TEMP: 44;  
 
NEWPORT SUNNY 42 23 46 N9 30.37F  
6HR MIN TEMP: 30; 6HR MAX TEMP: 42;  
 
BLYTHEVILLE SUNNY 43 26 51 NE13 30.33F  
6HR MIN TEMP: 30; 6HR MAX TEMP: 44;  
 
SEARCY SUNNY 45 22 40 N7 30.36F  
6HR MIN TEMP: 34; 6HR MAX TEMP: 45;  
 
STUTTGART SUNNY 45 24 43 NE15 30.34F  
6HR MIN TEMP: 37; 6HR MAX TEMP: 45;  
 
PINE BLUFF SUNNY 46 24 42 N12G21 30.34F  
6HR MIN TEMP: 39; 6HR MAX TEMP: 46;  
 
MONTICELLO SUNNY 48 24 39 N9 30.31F  
6HR MIN TEMP: 43; 6HR MAX TEMP: 49;  
 
   
..NORTH MISSISSIPPI
 
 
 
CITY SKY/WX TMP DP RH WIND PRES REMARKS
 
TUPELO SUNNY 49 24 37 N18 30.25F  
6HR MIN TEMP: 38; 6HR MAX TEMP: 49;  
 
OXFORD SUNNY 48 23 37 N13 30.27F  
BATESVILLE SUNNY 49 22 35 NE7 30.29F  
6HR MIN TEMP: 38; 6HR MAX TEMP: 49;  
 
OLIVE BRANCH MOSUNNY N/A N/A N/A NE12G17 30.27F  
TUNICA N/A N/A N/A N/A N12 30.33F  
CLARKSDALE N/A 46 28 49 N18 30.31F  
CORINTH SUNNY 48 23 37 VRB5G15 30.26F  
GREENWOOD SUNNY 54 26 34 N9G21 30.25F  
6HR MIN TEMP: 40; 6HR MAX TEMP: 55;  
 
COLUMBUS SUNNY 53 34 48 NW12 30.21F  
6HR MIN TEMP: 40; 6HR MAX TEMP: 53;  
 
STARKVILLE SUNNY 52 32 46 N7 30.24F  
GOLDEN TRIANGL SUNNY 55 32 41 N9 30.22F  
6HR MIN TEMP: 41; 6HR MAX TEMP: 55;  
 
   
..SOUTHEAST MISSOURI
 
 
 
CITY SKY/WX TMP DP RH WIND PRES REMARKS
 
KENNETT SUNNY 41 27 56 N12 30.32F  
MALDEN SUNNY 41 23 48 NE12 30.35F  
WEST PLAINS SUNNY 42 16 34 NW6 30.34F  
6HR MIN TEMP: 24; 6HR MAX TEMP: 42;  
 
POPLAR BLUFF SUNNY 40 21 46 NE8 30.35F WCI 34  
6HR MIN TEMP: 28; 6HR MAX TEMP: 41;  
 
CAPE GIRARDEAU SUNNY 39 21 48 NE8 30.34F WCI 33  
6HR MIN TEMP: 27; 6HR MAX TEMP: 39;  
 
   
..NORTHWEST ALABAMA
 
 
 
CITY SKY/WX TMP DP RH WIND PRES REMARKS
 
MUSCLE SHOALS SUNNY 49 26 41 NE15 30.24F  
6HR MIN TEMP: 39; 6HR MAX TEMP: 50;  
 
   
..MIDDLE TENNESSEE
 
 
 
CITY SKY/WX TMP DP RH WIND PRES REMARKS
 
NASHVILLE MOSUNNY 46 25 43 NE9 30.27F  
6HR MIN TEMP: 32; 6HR MAX TEMP: 46;  
 
CLARKSVILLE SUNNY 42 24 49 NE8 30.30F  
6HR MIN TEMP: 28; 6HR MAX TEMP: 42;  
 
COLUMBIA SUNNY 45 25 45 NE6G14 30.24F  
 
   
..WESTERN KENTUCKY
 
 
 
CITY SKY/WX TMP DP RH WIND PRES REMARKS
 
PADUCAH SUNNY 41 20 43 NE8 30.32F  
6HR MIN TEMP: 29; 6HR MAX TEMP: 42;  
 
FORT CAMPBELL SUNNY 42 24 49 N7 30.29F  
6HR MIN TEMP: 29; 6HR MAX TEMP: 42;  
 
   
..CENTRAL ARKANSAS
 
 
 
CITY SKY/WX TMP DP RH WIND PRES REMARKS
 
LITTLE ROCK SUNNY 46 21 37 NE9 30.35F  
6HR MIN TEMP: 37; 6HR MAX TEMP: 47;  
 
SKY/WX REPORTED AS FAIR MEANS FEW OR NO CLOUDS BELOW  
12 THOUSAND FEET.  
 
 
 
CLICK HERE TO GO TO PREVIOUS BULLETINS.

The Nexlab TN Page
The Nexlab MS Page
The Nexlab AR Page Main Text Page